Regional Weather Roundup
Issued by NWS Wilmington, NC

Home | Current Version | Previous Version | Text Only | Print | Product List | Glossary On
Versions: 1 2 3 4 5 6 7 8 9 10 11 12 13 14 15 16 17 18 19 20 21 22 23 24 25 26 27 28 29 30 31 32 33 34 35 36 37 38 39 40 41 42 43 44 45 46 47 48 49 50
000
ASUS42 KILM 270410
RWRILM
RWRILM
REGIONAL HOURLY WEATHER ROUNDUP
NATIONAL WEATHER SERVICE WILMINGTON NC
1100 PM EST THU FEB 26 2015

NOTE: "FAIR" INDICATES FEW OR NO CLOUDS BELOW 12,000 FEET WITH NO
SIGNIFICANT WEATHER AND/OR OBSTRUCTIONS TO VISIBILITY.

...............WFO WILMINGTON COUNTY WARNING AREA...............

......COASTAL NC AND SC COUNTIES......

CITY           SKY/WX    TMP DP  RH WIND       PRES   REMARKS
WILMINGTON     CLOUDY    37  32  82 N7        30.15R WCI  32
SOUTHPORT      CLOUDY    37  33  84 N8        30.15R WCI  31
N MYRTLE BEACH CLOUDY    38  33  82 N5        30.15R WCI  34
MYRTLE BEACH   CLOUDY    39  34  81 N6        30.18R WCI  35

......INLAND NC AND SC COUNTIES.......

CITY           SKY/WX    TMP DP  RH WIND       PRES   REMARKS
LUMBERTON      CLOUDY    37  31  78 N3        30.17R
ELIZABETHTOWN  CLOUDY    37  32  85 CALM      30.17R
WHITEVILLE     CLOUDY    37  33  89 CALM      30.16R
FLORENCE       MOCLDY    36  31  82 N5        30.17R WCI  32
DARLINGTON     PTCLDY    36  30  80 CALM      30.18S

....................REST OF NORTH CAROLINA......................

.........EASTERN NC.........

CITY           SKY/WX    TMP DP  RH WIND       PRES   REMARKS
CAPE HATTERAS  CLOUDY    34  31  88 N10G24    30.08S WCI  26
JACKSONVILLE   CLOUDY    36  30  80 CALM      30.16R
MOREHEAD CITY  CLOUDY    35  32  88 N9        30.13R WCI  28
KENANSVILLE    CLOUDY    35  33  90 CALM      30.17R
NEW BERN       CLOUDY    35  31  85 N3        30.16R
ELIZABETH CITY NOT AVBL

.........CENTRAL NC.........

CITY           SKY/WX    TMP DP  RH WIND       PRES   REMARKS
RALEIGH DURHAM MOCLDY    28  27  93 CALM      30.16R FOG
ROCKY MOUNT    CLOUDY    33  31  92 CALM      30.16R FOG
ROANOKE RAPIDS NOT AVBL
FAYETTEVILLE   CLOUDY    36  29  75 CALM      30.17R
HOFFMAN        NOT AVBL

.........WESTERN NC.........

CITY           SKY/WX    TMP DP  RH WIND       PRES   REMARKS
CHARLOTTE      MOCLDY    35  29  78 SE7       30.15R WCI  29
GREENSBORO     CLOUDY    31  28  89 SW3       30.12R FOG
HICKORY        NOT AVBL
BOONE          NOT AVBL
ASHEVILLE      NOT AVBL

.....................REST OF SOUTH CAROLINA.....................

.........EASTERN SC.........

CITY           SKY/WX    TMP DP  RH WIND       PRES   REMARKS
CHARLESTON     CLOUDY    41  35  79 NE5       30.16R
BEAUFORT MCAS  CLOUDY    41  36  82 NE3       30.16R
HILTON HEAD    CLOUDY    43  37  81 N6        30.17R

.........CENTRAL SC.........

CITY           SKY/WX    TMP DP  RH WIND       PRES   REMARKS
COLUMBIA       PTCLDY    36  34  92 CALM      30.17R
ORANGEBURG     CLOUDY    37  34  89 CALM      30.16R
SUMTER SHAW    NOT AVBL

.........WESTERN SC.........

CITY           SKY/WX    TMP DP  RH WIND       PRES   REMARKS
GREENVILLE     NOT AVBL
ROCK HILL      CLOUDY    31  30  96 CALM      30.15R
ANDERSON       CLOUDY    41  36  82 CALM      30.13R
CLEMSON        NOT AVBL
GREENWOOD      CLOUDY    41  36  82 CALM      30.15R


...................COASTAL AND OFFSHORE REPORTS..................

................LOCAL PIERS AND NC RESERVE................


STATION/POSITION TIME  SKY/WX   TEMP    WIND        PRES    VSBY
                                AIR SEA DIR/SP/G
                 (UTC)          (F)     (DEG/KT/KT) (MB)    (MI)
JOHNY MRCER PIER 0400            37 48  350/  7/ 11 1020.2R
NC RESRV MASNBRO 0300            37     350/  2     1019.0S
OCEAN CREST PIER 0400            38 46  320/  7/ 12 1020.1R
SPRINGMAID  PIER 0400            38 44  350/  5/  6 1021.1S


................COASTAL AND OFFSHORE BUOYS................


STATION/POSITION TIME  SKY/WX   TEMP    WIND        PRES    VSBY
                                AIR SEA DIR/SP/G
                 (UTC)          (F)     (DEG/KT/KT) (MB)    (MI)
DIMNDSHOAL 41025 NOT AVBL
CAPE LOOKOUT     0300            36     360/ 14/ 17 1019.0R
ONSLOW BAY 41036 NOT AVBL
5 WRITEBCH 41038 NOT AVBL
MASONBORO  41110 0400               47                N/A
WVE H/P(F/S)=  4/ 9 WND WVE H/P(F/S)=  3/ 9 SWL H/P/D(F/S/D)=  2/140/11

WILM HARBR 41108 0400               46                N/A
WVE H/P(F/S)=  4/10 WND WVE H/P(F/S)=  3/10 SWL H/P/D(F/S/D)=  2/170/11

27WRITEBCH 41037 NOT AVBL
FRYING PAN 41013 0400            42 60   10/ 16/ 19 1020.6R
WVE H/P(F/S)=  6/10 WND WVE H/P(F/S)=  5/ 6 SWL H/P/D(F/S/D)=  5/180/10

SUNST NRSH 41024 0300            38                   N/A
CAPRS NRSH 41029 NOT AVBL
EDISTO     41004 0400            45 65   20/ 12/ 17 1020.1R
WVE H/P(F/S)=  5/ 9 WND WVE H/P(F/S)=  3/ 5 SWL H/P/D(F/S/D)=  5/ 9



..........OFFSHORE BUOYS BEYOND 100 NM OFFSHORE...........
.....IN A TRIANGLE---HAT TO BERMUDA TO BAHAMAS TO HAT.....


STATION/POSITION TIME  SKY/WX   TEMP    WIND        PRES    VSBY
                                AIR SEA DIR/SP/G
                 (UTC)          (F)     (DEG/KT/KT) (MB)    (MI)
150E HAT   41001 NOT AVBL
W BERMUDA  41048 0250            71 68  200/ 23/ 29 1013.5R
WVE H/P(F/S)= 10/ 8 WND WVE H/P(F/S)=  8/ 8 SWL H/P/D(F/S/D)=  5/250/10

ATLANTIC S 41049 0254            74 74  150/ 10/ 12 1023.6F
WVE H/P(F/S)=  5/10 WND WVE H/P(F/S)=  2/ 5 SWL H/P/D(F/S/D)=  5/100/10

E BAHAMAS  41046 0337            77 78  120/ 12/ 14 1021.2S
WVE H/P(F/S)=  5/10 WND WVE H/P(F/S)=  3/ 5 SWL H/P/D(F/S/D)=  3/ 70/10

NE BAHAMAS 41047 0336            74 73  180/ 12/ 14 1019.1S
WVE H/P(F/S)=  5/10 WND WVE H/P(F/S)=  3/ 5 SWL H/P/D(F/S/D)=  5/ 90/10

120E CANVRL41010 0400            64 74   10/  8/ 10 1017.5R
WVE H/P(F/S)=  6/ 7 WND WVE H/P(F/S)=  2/ 4 SWL H/P/D(F/S/D)=  5/120/ 7


END



USA.gov is the U.S. government's official web portal to all federal, state and local government web resources and services.